星链-32280 (STARLINK-32280)

导读 | 星芒AI

STARLINK-32280 是 SpaceX Starlink 卫星互联网项目中的一颗低轨道卫星,属于其第二代卫星星座计划的一部分。该卫星由 SpaceX 研发并发射,旨在为全球用户提供高速、低延迟的宽带互联网服务。它运行在约 550 公里的轨道高度,配备先进通信设备,支持大规模数据传输。Starlink 项目致力于改善偏远地区的网络接入,同时推动全球互联网覆盖的公平性与可及性。

基本信息
目录编号:
60736
目录名称:
STARLINK-32280
国际标识:
2024-152S
轨道中心:
EARTH
卫星名称:
星链-32280 (STARLINK-32280)
卫星全名:
星链-32280 (STARLINK-32280)
卫星状态:
已陨落 最后检测时间 2025-10-15
发射日期:
2024-08-28 UTC
国别 :
美国 (US)
星等 :
--
轨道信息
数据来源 国际轨道数据
星历时间: 2025-10-15T12:42:25+0800
轨道信息已过期66天
半长轴: 6570.826km
偏心率: 0.0009218
轨道倾角: 53.120°
近地点辐角 183.053°
升交点赤经 211.340°
平近点角 177.046°
近地点: 186.634km
远地点: 198.748km
周期: 88.347分钟
每日圈数: 16.299447
详细信息
卫星平台:
Starlink v2.0 mini
运营商:
太空探索技术公司
运营商所在国:
美国
制造商(研发单位):
太空探索技术公司
制造商所在国:
美国
使用方式:
暂无
卫星简介
星链(Starlink)计划是由太空探索技术公司(SpaceX)提出的一个巨型低轨卫星互联网星座项目,计划在2019年至2024年间在太空搭建由约1.2万颗卫星组成的“星链”网络,其中1584颗将部署在地球上空550千米处的近地轨道,并从2020年开始工作。该卫星仍在工作。